Погода в Камышине

Погода в Камышине : погода сейчас, прогноз погоды и архив. Всё, что Вы хотите узнать о погоде в Камышине!

Хотите узнать прогноз погоды в Камышине? Тогда Вам сюда: Погода в Камышине

Поиск расширенной информации на нашем сайте:

Полезная информация:

Другие новости

Новости СМИ2

Главная страница сайта

Новости сайта

03.07.2017

Напоминаем, что на нашем специализированном сайте Метеоцентр.Азия вы можете получить высокодетализированные автоматические прогнозы погоды по пунктам России, СНГ и мира в авиационном формате (включающие направление и скорость ветра, видимость, явления погоды, количество и форму облачности, нижнюю и верхнюю границу облачности).

Рекомендуем:

Погода в Камышине - сегодня

Время (UTC), дата Ветер
(°,м/с) 
Видим.   Явления Облачность Т
(°С)
Тd
(°С)
f(%) Тe
(°С)
Pmin
(гПа)
dP
(гПа)
Po
(мм)
O2
(г/м3)
Тmin Tmax R s Состояние
почвы
12 15.07.19 120 (ЮВ) 20000 м    3/3 1000 м 
[Cu med, cong]
+26.2 +7.8 31 +26  1008.5  0.1  746  273           
15 15.07.19 070 (В) 20000 м    4/3 1000 м верхняя 
[Cu med, cong|Ci sp]
+25.9 +9.9 36 +27  1008.4  -0.1  746  273    +27.3       
18 15.07.19 070 (В) 20000 м    4/1 1000 м средняя, верхняя 
[Sc diur, vesp|Ac cuf|Ci fib]
+23.3 +12.3 50 +28  1009.6  1.1  747  275           
21 15.07.19 020 (С) 20000 м    3/0 верхняя 
[Ci fib]
+21.2 +9.8 48 +22  1010.1  0.4  747  278           
00 16.07.19 030 (СВ) 20000 м    4/0 средняя, верхняя 
[Ac trans|Ci fib]
+19.7 +10.9 57 +23  1010.3  747  279           
03 16.07.19 050 (СВ) 20000 м    9/0 средняя, верхняя 
[Ac trans|Ci sp]
+21.1 +13.7 63 +28  1010.2  747  277  +18.8        сухая 
06 16.07.19 050 (СВ) 10 км    10/0 средняя 
[As trans]
+21.1 +14.2 65 +29  1010.4  0.2  747  277           
09 16.07.19 170 (Ю) 5-10{12}  10 км    10/5 1000 м средняя 
[Sc|As op]
+22 +14.2 61 +29  1009.9  -0.5  747  276           
12 16.07.19 330 (СЗ) 2{12}  10 км  слаб. дождь  10/10 600 м 
[Ns]
+18 +16.3 90 +30  1010  -0.1  747  279           
15 16.07.19 020 (С) 10 км  {дождь}  10/10 600 м 
[Sc]
+18.8 +16.6 87 +31  1008.8  -1.1  746  278    +23.5     
18 16.07.19 060 (СВ) 10 км  {дождь}  10/10 600 м 
[Sc]
+19.5 +16.3 82 +31  1009.3  0.4  746  277           
21 16.07.19 060 (СВ) 20000 м    9/3 600 м средняя 
[Sc|Ac trans]
+19.4 +15.8 80 +30  1008.6  -0.7  746  277           
00 17.07.19 110 (В) 20000 м    8/0 средняя 
[Ac trans]
+18.3 +15.7 85 +29  1007.5  -1.1  745  278           
03 17.07.19 140 (ЮВ) 10 км    5/0 средняя 
[Ac trans]
+18 +15.7 86 +29  1006.9  -0.7  744  278  +17.5        влажная 
06 17.07.19 150 (ЮВ) 10 км    3/0 средняя, верхняя 
[Ac cast|Ci fib]
+22.9 +16.1 66 +34  1005.3  -1.4  743  273           
09 17.07.19 180 (Ю) 20000 м    4/3 1000 м средняя 
[Cu med, cong|Ac lent]
+25.6 +15.6 54 +36  1005  0.1  743  271           
12 17.07.19 230 (ЮЗ) 6{11}  20000 м    5/3 1000 м средняя 
[Cu med, cong|Ac trans]
+26.1 +13.8 47 +33  1004.8  -0.2  743  271           
15 17.07.19 260 (З) 5{10}  20000 м    9/1 1000 м средняя, верхняя 
[Cu med, cong|Ac lent|Ci fib]
+25.1 +13.2 48 +31  1004.4  -0.5  743  272    +27       
18 17.07.19 280 (З) 20000 м    9/0 верхняя 
[Ci fib]
+21.5 +14.5 64 +30  1006.2  1.6  744  275           
21 17.07.19 290 (З) 20000 м    4/0 верхняя 
[Ci fib]
+20 +14.8 72 +29  1006.6  0.4  744  276           
00 18.07.19 300 (СЗ) 20000 м    4/0 верхняя 
[Ci fib]
+18.4 +14.5 78 +27  1006.9  0.2  744  278           
03 18.07.19 300 (СЗ) 10 км    3/0 верхняя 
[Ci fib]
+19.1 +14.4 74 +28  1008.1  1.2  745  278  +15.9        влажная 
06 18.07.19 310 (СЗ) 20000 м    1/0 верхняя 
[Ci sp]
+23.6 +13.9 55 +31  1008.2  0.3  746  274           
09 18.07.19 340 (С) 20000 м    3/3 1000 м 
[Cu hum]
+27 +11.4 38 +30  1008.3  0.3  746  271           
12 18.07.19 050 (СВ) 20000 м    3/3 1000 м 
[Cu med, cong]
+29 +9.4 29 +30  1008  -0.2  746  270           
Время (UTC), дата Ветер
(°,м/с) 
Видим.   Явления Облачность Т
(°С)
Тd
(°С)
f(%) Тe
(°С)
Pmin
(гПа)
dP
(гПа)
Po
(мм)
O2
(г/м3)
Тmin Tmax R s Состояние
почвы

Для получения пояснительной информации подведите курсор к названию столбца.

ПОГОДА в Камышине - архив

Всё, что Вы хотите узнать о погоде в Камышине - удобно и подробно!

Выберите нужную дату (начиная с 1 января 2018* года) и нажмите кнопку "Найти".
Будут отображены архивные сводки погоды по пункту Камышин, начиная с указанной даты.


Отображать данные в формате CSV (для использования в таблицах Excel)


Внимание! Наш архив погоды предназначен исключительно для личного некоммерческого использования в познавательных целях. Если Вам необходимы официальные справки о состоянии погоды (для производственных, юридических, коммерческих и т.п. целей), обращайтесь в органы Росгидромета.

*Примечание: данная дата относится к архиву по метеостанциям СССР (Россия, СНГ, Балтия).
Архив по метеостанциям Зарубежной Европы и Азии (кроме Китая) хранится 10 дней, по другим регионам земного шара (Китай, Африка, Америка, Австралия, Океания) - 1 день.

Камышин - район местоположения метеостанции


Название, широта, долгота, высота метеостанции:
Камышин 50.1°ш. 45.4°д. 119 м над ур. моря [Российская Федерация]

Дополнительная информация

В oтличие oт бoльшинства пoгoдных сайтoв мы публикуем пoдрoбную метеoинфoрмацию в детальнoм прoфессиoнальнoм фoрмате.

Характеристики температуры и влажнoсти вoздуха измеряются на высoте 2 м в тени вдали oт зданий и деревьев.
Скoрoсть ветра измеряется на высoте 10 м (на урoвне рoста челoвека скoрoсть ветра ниже в 1.5-2 раза). Если метеoстанция нахoдится в гoрoде или в лесу, тo скoрoсть ветра занижена на 2-4 м/с пo сравнению с oткрытым местoм. Скoрoсть ветра над акватoриями крупных рек и oзёр, а также на вершинах хoлмoв на 2-5 м/с выше, чем в oбычных услoвиях.
Атмoсфернoе давление в разных тoчках местнoсти мoжет значительнo oтличаться oт давления на метеoстанции, в зависимoсти oт услoвий рельефа (при пoдъёме на 10 м давление пoнижается примернo на 1 мм рт.ст.).